Weather History for PATO - February, 2013

Change the Weather History Date:

Thursday, February 7, 2013

  Actual Average Record
Temperature  
Mean Temperature 29 °F -  
Max Temperature 35 °F - - ()
Min Temperature 23 °F - - ()
Degree Days  
Heating Degree Days 36    
Moisture  
Dew Point 28 °F    
Average Humidity 87    
Maximum Humidity 100    
Minimum Humidity 76    
Precipitation  
Precipitation 0.40 in - - ()
Sea Level Pressure  
Sea Level Pressure 29.47 in    
Wind  
Wind Speed 10 mph (ESE)    
Max Wind Speed 29 mph    
Max Gust Speed 56 mph    
Visibility 4 miles    
Events Fog , Snow    
T = Trace of Precipitation, MM = Missing Value Source: NWS Daily Summary

Daily Weather History Graph

Daily Weather History Graph

Search for Another Location

Airport or City:

Trip Planner

Search our weather history database for the weather conditions in past years. The results will help you decide how hot, cold, wet, or windy it might be!

Date:

Astronomy

Feb. 07, 2013 Rise Set
Actual Time 8:56 AM AKST 5:23 PM AKST
Civil Twilight 8:09 AM AKST 6:10 PM AKST
Nautical Twilight 7:19 AM AKST 7:01 PM AKST
Astronomical Twilight 6:29 AM AKST 7:50 PM AKST
Moon 7:12 AM AKST (2/7) 2:34 PM AKST (2/7)
Length of Visible Light 10h 00m
Length of Day
8h 26m
Waning Crescent, 8% of the Moon is Illuminated
Feb 7
Waning Crescent
Feb 9
New
Feb 17
First Quarter
Feb 25
Full
Mar 4
Last Quarter

Hourly Weather History & Observations

Time (AKST) Temp. Windchill Dew Point Humidity Pressure Visibility Wind Dir Wind Speed Gust Speed Precip Events Conditions
12:23 AM 26.1 °F - 25.0 °F 96% 29.62 in 10.0 mi Calm Calm - N/A   Mostly Cloudy
12:33 AM 25.0 °F - 25.0 °F 100% 29.62 in 10.0 mi Calm Calm - N/A   Mostly Cloudy
12:53 AM 25.0 °F - 25.0 °F 100% 29.62 in 10.0 mi Calm Calm - N/A   Overcast
1:48 AM 23.0 °F 17.0 °F 21.2 °F 93% 29.61 in 10.0 mi ESE 4.6 mph - N/A   Partly Cloudy
1:53 AM 23.0 °F 18.4 °F 23.0 °F 100% 29.61 in 10.0 mi ESE 3.5 mph - N/A   Partly Cloudy
3:53 AM 28.0 °F 20.0 °F 23.0 °F 81% 29.58 in 10.0 mi SE 8.1 mph - N/A   Overcast
4:53 AM 30.9 °F 21.2 °F 24.1 °F 76% 29.57 in 10.0 mi SSE 12.7 mph 17.3 mph N/A   Overcast
5:53 AM 30.9 °F 22.2 °F 26.1 °F 82% 29.57 in 10.0 mi SE 10.4 mph 21.9 mph N/A   Overcast
6:53 AM 30.9 °F 22.2 °F 26.1 °F 82% 29.55 in 4.0 mi SSE 10.4 mph 18.4 mph 0.00 in Snow Light Snow
7:09 AM 30.9 °F 22.2 °F 26.1 °F 82% 29.55 in 2.5 mi SE 10.4 mph 19.6 mph 0.00 in Snow Light Snow
7:42 AM 32.0 °F 23.0 °F 26.1 °F 79% 29.54 in 3.0 mi ESE 11.5 mph 24.2 mph 0.00 in Snow Light Snow
7:53 AM 32.0 °F 22.5 °F 26.1 °F 79% 29.54 in 2.0 mi ESE 12.7 mph 23.0 mph 0.00 in Snow Light Snow
8:05 AM 32.0 °F 24.8 °F 26.1 °F 79% 29.53 in 1.8 mi SE 8.1 mph 21.9 mph 0.00 in Snow Light Snow
8:12 AM 32.0 °F 22.5 °F 27.0 °F 82% 29.52 in 2.0 mi ESE 12.7 mph 20.7 mph 0.00 in Snow Light Snow
8:21 AM 32.0 °F 20.8 °F 27.0 °F 82% 29.52 in 1.5 mi ESE 17.3 mph 29.9 mph 0.00 in Snow Light Snow
8:53 AM 32.0 °F 22.1 °F 28.0 °F 85% 29.52 in 1.0 mi ESE 13.8 mph 26.5 mph 0.00 in Snow Light Snow
8:56 AM 30.9 °F 22.2 °F 28.0 °F 89% 29.51 in 0.8 mi SE 10.4 mph 26.5 mph 0.00 in Snow Light Snow
9:18 AM 33.1 °F 22.2 °F 28.0 °F 82% 29.50 in 1.0 mi SE 17.3 mph 34.5 mph 0.01 in Snow Light Snow
9:29 AM 32.0 °F 20.5 °F 28.0 °F 85% 29.49 in 0.5 mi ESE 18.4 mph 31.1 mph 0.01 in Fog , Snow Snow
9:48 AM 33.8 °F 23.5 °F 28.4 °F 81% 29.49 in 0.2 mi ESE 16.1 mph 34.5 mph 0.02 in Fog , Snow Snow
9:49 AM 33.1 °F 22.6 °F 28.9 °F 85% 29.49 in 0.2 mi ESE 16.1 mph 34.5 mph 0.02 in Fog , Snow Snow
10:28 AM 33.1 °F 21.5 °F 28.9 °F 85% 29.47 in 0.5 mi East 19.6 mph 40.3 mph 0.03 in Fog , Snow Snow
10:45 AM 33.1 °F 23.4 °F 28.9 °F 85% 29.47 in 0.2 mi East 13.8 mph 36.8 mph 0.03 in Fog , Snow Snow
10:53 AM 33.1 °F 21.9 °F 28.9 °F 85% 29.47 in 0.2 mi East 18.4 mph 40.3 mph 0.04 in Fog , Snow Snow
11:53 AM 33.1 °F 21.5 °F 28.9 °F 85% 29.44 in 0.2 mi East 19.6 mph 47.2 mph 0.05 in Fog , Snow Snow
12:53 PM 33.1 °F 19.8 °F 28.9 °F 85% 29.42 in 0.2 mi SE 26.5 mph 43.7 mph 0.03 in Fog , Snow Heavy Snow
1:53 PM 33.1 °F 20.3 °F 28.9 °F 85% 29.38 in 0.2 mi East 24.2 mph 44.9 mph 0.06 in Fog , Snow Heavy Snow
2:53 PM 33.1 °F 19.3 °F 30.0 °F 89% 29.36 in 0.2 mi East 28.8 mph 51.8 mph 0.05 in Fog , Snow Heavy Snow
3:53 PM 33.1 °F 21.5 °F 30.0 °F 89% 29.36 in 0.2 mi East 19.6 mph 56.4 mph 0.05 in Fog , Snow Heavy Snow
4:53 PM 33.1 °F 22.2 °F 30.0 °F 89% 29.36 in 0.2 mi SE 17.3 mph 38.0 mph 0.04 in Fog , Snow Heavy Snow
5:29 PM 34.0 °F 25.0 °F 30.0 °F 85% 29.37 in 0.8 mi ESE 12.7 mph 33.4 mph 0.02 in Snow Light Snow
5:53 PM 33.1 °F 23.4 °F 30.0 °F 89% 29.38 in 0.8 mi ESE 13.8 mph 27.6 mph 0.03 in Snow Light Snow
6:31 PM 34.0 °F 23.8 °F 30.0 °F 85% 29.36 in 1.0 mi ESE 16.1 mph 28.8 mph 0.03 in Snow Light Snow
6:53 PM 34.0 °F 23.0 °F 30.0 °F 85% 29.36 in 1.5 mi ESE 18.4 mph 33.4 mph 0.03 in Snow Light Snow
7:06 PM 34.0 °F 23.4 °F 28.9 °F 82% 29.35 in 2.5 mi ESE 17.3 mph 33.4 mph 0.00 in Snow Light Snow
7:11 PM 35.1 °F 25.2 °F 28.9 °F 78% 29.36 in 3.0 mi East 16.1 mph 33.4 mph 0.00 in Snow Light Snow
7:46 PM 33.1 °F 24.4 °F 32.0 °F 96% 29.37 in 2.0 mi SE 11.5 mph 23.0 mph 0.00 in Snow Light Snow
7:53 PM 33.1 °F 24.4 °F 33.1 °F 100% 29.38 in 3.0 mi SE 11.5 mph 23.0 mph 0.00 in Snow Light Snow
8:03 PM 32.0 °F 24.2 °F 32.0 °F 100% 29.37 in 2.5 mi SSE 9.2 mph 17.3 mph 0.00 in Snow Light Snow
8:10 PM 34.0 °F 25.5 °F 30.9 °F 89% 29.38 in 3.0 mi SE 11.5 mph 20.7 mph 0.00 in Snow Light Snow
8:53 PM 33.1 °F 26.1 °F 30.9 °F 92% 29.39 in 3.0 mi SSE 8.1 mph 18.4 mph 0.00 in Snow Light Snow
9:53 PM 33.1 °F 25.5 °F 32.0 °F 96% 29.39 in 8.0 mi SSE 9.2 mph - 0.00 in   Overcast
10:53 PM 33.1 °F 26.9 °F 32.0 °F 96% 29.40 in 10.0 mi Variable 6.9 mph - N/A   Overcast
11:53 PM 34.0 °F - 30.9 °F 89% 29.39 in 10.0 mi North - - N/A   Overcast